TimeCAT,TemperatureF,Dew PointF,Humidity,Sea Level PressureIn,VisibilityMPH,Wind Direction,Wind SpeedMPH,Gust SpeedMPH,PrecipitationIn,Events,Conditions,WindDirDegrees,DateUTC
12:00 AM,50.0,39.2,66,30.18,-9999.0,Variable,2.3,-,N/A,,Clear,0,2013-07-19 22:00:00
1:00 AM,48.2,37.4,66,30.18,-9999.0,Variable,1.2,-,N/A,,Clear,0,2013-07-19 23:00:00
2:00 AM,48,35,50,,6,Calm,Calm,,,,,,2013-07-20 00:00:00
2:00 AM,48.2,35.6,62,30.15,-9999.0,Calm,Calm,-,N/A,,Clear,0,2013-07-20 00:00:00
3:00 AM,46.4,33.8,62,30.15,-9999.0,Calm,Calm,-,N/A,,Clear,0,2013-07-20 01:00:00
4:00 AM,46.4,30.2,53,30.15,-9999.0,Variable,2.3,-,N/A,,Clear,0,2013-07-20 02:00:00
5:00 AM,42.8,37.4,81,30.15,-9999.0,Variable,2.3,-,N/A,,Clear,0,2013-07-20 03:00:00
6:00 AM,41.0,35.6,81,30.18,-9999.0,North,4.6,-,N/A,,Clear,350,2013-07-20 04:00:00
7:00 AM,41.0,35.6,81,30.18,-9999.0,NNW,3.5,-,N/A,,Clear,340,2013-07-20 05:00:00
8:00 AM,46,36,60,,6,North,3.5,,,,,10,2013-07-20 06:00:00
8:00 AM,46.4,37.4,71,30.21,-9999.0,North,3.5,-,N/A,,Clear,10,2013-07-20 06:00:00
9:00 AM,59.0,42.8,55,30.21,-9999.0,North,3.5,-,N/A,,Clear,360,2013-07-20 07:00:00
10:00 AM,68.0,46.4,46,30.24,-9999.0,Variable,2.3,-,N/A,,Clear,0,2013-07-20 08:00:00
11:00 AM,71.6,46.4,41,30.24,-9999.0,NW,4.6,-,N/A,,Clear,310,2013-07-20 09:00:00
12:00 PM,75.2,41.0,29,30.21,-9999.0,SE,6.9,-,N/A,,Clear,140,2013-07-20 10:00:00
1:00 PM,75.2,39.2,27,30.18,-9999.0,Variable,2.3,-,N/A,,Clear,0,2013-07-20 11:00:00
2:00 PM,78,39,15,,6,South,3.5,,,,Partly Cloudy,190,2013-07-20 12:00:00
2:00 PM,78.8,39.2,24,30.15,-9999.0,South,3.5,-,N/A,,Clear,190,2013-07-20 12:00:00
3:00 PM,78.8,39.2,24,30.12,-9999.0,South,6.9,-,N/A,,Clear,180,2013-07-20 13:00:00
4:00 PM,78.8,41.0,26,30.12,-9999.0,SE,9.2,-,N/A,,Clear,140,2013-07-20 14:00:00
5:00 PM,77.0,37.4,24,30.12,-9999.0,SSE,4.6,-,N/A,,Clear,150,2013-07-20 15:00:00
6:00 PM,73.4,44.6,36,30.15,-9999.0,ENE,3.5,-,N/A,,Clear,70,2013-07-20 16:00:00
7:00 PM,64.4,39.2,40,30.15,-9999.0,ESE,4.6,-,N/A,,Clear,110,2013-07-20 17:00:00
8:00 PM,59,36,30,,6,Calm,Calm,,,,Partly Cloudy,,2013-07-20 18:00:00
8:00 PM,59.0,35.6,42,30.18,-9999.0,Calm,Calm,-,N/A,,Clear,0,2013-07-20 18:00:00
9:00 PM,55.4,33.8,44,30.21,-9999.0,Variable,2.3,-,N/A,,Clear,0,2013-07-20 19:00:00
10:00 PM,53.6,37.4,54,30.21,-9999.0,Variable,2.3,-,N/A,,Clear,0,2013-07-20 20:00:00
11:00 PM,51.8,35.6,54,30.21,-9999.0,WSW,5.8,-,N/A,,Clear,240,2013-07-20 21:00:00